TimeCST,TemperatureF,Dew PointF,Humidity,Sea Level PressureIn,VisibilityMPH,Wind Direction,Wind SpeedMPH,Gust SpeedMPH,PrecipitationIn,Events,Conditions,WindDirDegrees,DateUTC
12:53 AM,44.1,44.1,100,29.89,0.2,Calm,Calm,-,N/A,Fog,Fog,0,2013-12-02 06:53:00
1:53 AM,45.0,45.0,100,29.88,0.2,Calm,Calm,-,N/A,Fog,Fog,0,2013-12-02 07:53:00
2:32 AM,44.6,44.6,100,29.87,0.5,Calm,Calm,-,N/A,Fog,Fog,0,2013-12-02 08:32:00
2:42 AM,44.6,44.6,100,29.87,0.2,Calm,Calm,-,N/A,Fog,Fog,0,2013-12-02 08:42:00
2:53 AM,45.0,45.0,100,29.86,0.2,Calm,Calm,-,N/A,Fog,Fog,0,2013-12-02 08:53:00
3:10 AM,46.4,46.4,100,29.87,0.5,Calm,Calm,-,N/A,Fog,Fog,0,2013-12-02 09:10:00
3:53 AM,46.0,46.0,100,29.85,0.5,Calm,Calm,-,N/A,Fog,Fog,0,2013-12-02 09:53:00
4:06 AM,46.4,46.4,100,29.85,0.2,Calm,Calm,-,N/A,Fog,Fog,0,2013-12-02 10:06:00
4:20 AM,46.4,46.4,100,29.84,0.5,Calm,Calm,-,N/A,Fog,Fog,0,2013-12-02 10:20:00
4:40 AM,46.4,46.4,100,29.84,0.5,Calm,Calm,-,N/A,Fog,Fog,0,2013-12-02 10:40:00
4:53 AM,46.0,46.0,100,29.82,0.8,Variable,3.5,-,N/A,,Overcast,0,2013-12-02 10:53:00
4:58 AM,46.4,46.4,100,29.83,2.0,SSW,4.6,-,N/A,,Overcast,200,2013-12-02 10:58:00
5:05 AM,46.4,46.4,100,29.83,6.0,SW,4.6,-,N/A,,Overcast,220,2013-12-02 11:05:00
5:53 AM,46.0,46.0,100,29.80,6.0,South,4.6,-,N/A,,Overcast,190,2013-12-02 11:53:00
6:53 AM,46.0,46.0,100,29.80,6.0,South,4.6,-,N/A,,Overcast,190,2013-12-02 12:53:00
7:53 AM,46.0,45.0,96,29.81,5.0,SSW,6.9,-,N/A,,Overcast,200,2013-12-02 13:53:00
8:53 AM,46.9,45.0,93,29.80,6.0,South,6.9,-,N/A,,Overcast,190,2013-12-02 14:53:00
9:53 AM,46.9,45.0,93,29.81,7.0,SSW,6.9,-,N/A,,Overcast,210,2013-12-02 15:53:00
10:53 AM,48.9,45.0,86,29.80,7.0,SSE,4.6,-,N/A,,Overcast,150,2013-12-02 16:53:00
11:21 AM,51.8,44.6,76,29.79,9.0,South,4.6,-,N/A,,Mostly Cloudy,190,2013-12-02 17:21:00
11:53 AM,53.1,46.0,77,29.76,9.0,South,8.1,-,N/A,,Mostly Cloudy,180,2013-12-02 17:53:00
12:28 PM,53.6,46.4,77,29.75,10.0,SW,6.9,-,N/A,,Scattered Clouds,220,2013-12-02 18:28:00
12:53 PM,55.9,46.0,69,29.72,10.0,SSE,5.8,-,N/A,,Clear,160,2013-12-02 18:53:00
1:53 PM,57.0,45.0,64,29.69,10.0,Variable,4.6,-,N/A,,Clear,0,2013-12-02 19:53:00
2:53 PM,60.1,44.1,55,29.65,10.0,South,5.8,-,N/A,,Clear,190,2013-12-02 20:53:00
3:53 PM,60.1,43.0,53,29.66,10.0,South,4.6,-,N/A,,Clear,190,2013-12-02 21:53:00
4:53 PM,50.0,42.1,74,29.66,10.0,SSE,5.8,-,N/A,,Clear,160,2013-12-02 22:53:00
5:53 PM,43.0,41.0,93,29.68,10.0,SW,4.6,-,N/A,,Clear,220,2013-12-02 23:53:00
6:53 PM,42.1,39.9,92,29.68,10.0,Calm,Calm,-,N/A,,Clear,0,2013-12-03 00:53:00
7:53 PM,37.9,37.9,100,29.68,9.0,Calm,Calm,-,N/A,,Clear,0,2013-12-03 01:53:00
8:53 PM,37.9,37.0,97,29.67,7.0,Calm,Calm,-,N/A,,Clear,0,2013-12-03 02:53:00
9:53 PM,37.0,36.0,96,29.68,5.0,Calm,Calm,-,N/A,,Clear,0,2013-12-03 03:53:00
10:11 PM,37.4,37.4,100,29.68,1.5,Calm,Calm,-,N/A,,Clear,0,2013-12-03 04:11:00
10:16 PM,37.4,35.6,93,29.68,0.5,Calm,Calm,-,N/A,Fog,Fog,0,2013-12-03 04:16:00
10:25 PM,37.4,37.4,100,29.68,0.2,Calm,Calm,-,N/A,Fog,Fog,0,2013-12-03 04:25:00
10:37 PM,35.6,35.6,100,29.68,0.8,Calm,Calm,-,N/A,,Mist,0,2013-12-03 04:37:00
10:51 PM,33.8,33.8,100,29.68,0.5,Calm,Calm,-,N/A,Fog,Fog,0,2013-12-03 04:51:00
10:53 PM,34.0,34.0,100,29.68,0.8,Calm,Calm,-,N/A,,Mist,0,2013-12-03 04:53:00
10:56 PM,35.6,35.6,100,29.68,1.8,Calm,Calm,-,N/A,,Scattered Clouds,0,2013-12-03 04:56:00
10:58 PM,35.6,35.6,100,29.67,3.0,Calm,Calm,-,N/A,,Scattered Clouds,0,2013-12-03 04:58:00
11:13 PM,35.6,35.6,100,29.67,2.5,Calm,Calm,-,N/A,,Mostly Cloudy,0,2013-12-03 05:13:00
11:21 PM,33.8,33.8,100,29.67,1.2,Calm,Calm,-,N/A,,Mostly Cloudy,0,2013-12-03 05:21:00
11:29 PM,35.6,33.8,93,29.66,0.5,Calm,Calm,-,N/A,Fog,Fog,0,2013-12-03 05:29:00
11:38 PM,33.8,33.8,100,29.66,0.2,Calm,Calm,-,N/A,Fog,Fog,0,2013-12-03 05:38:00
11:53 PM,34.0,34.0,100,29.66,0.2,Calm,Calm,-,N/A,Fog,Fog,0,2013-12-03 05:53:00